User: anonymous
Location: Young's Pond
(41.2695°N, 72.7766°W)
Time: 06:27:16
(UTC-04:00)
Language:

Spot 4 - Orbit

View from above orbital plane
View from above orbital plane
View from above satellite
View from above satellite

Ground track
Ground track

The orbit data is extracted from the following two-line orbital elements,

1 25260U 98017A   14112.55183483  .00000872  00000-0  22263-3 0  3197
2 25260 098.4663 175.8793 0012645 200.4651 159.6040 14.52944473834585
Epoch (UTC): 22 April 2014 13:14:38
Eccentricity: 0.0012645
inclination: 98.4663°
perigee height: 707 km
apogee height: 725 km
right ascension of ascending node: 175.8793°
argument of perigee: 200.4651°
revolutions per day: 14.52944473
mean anomaly at epoch: 159.6040°
orbit number at epoch: 83458

The dashed part of the orbit path shows where the satellite is in the earth's shadow,  

DLR